Time,TemperatureF,DewpointF,PressureIn,WindDirection,WindDirectionDegrees,WindSpeedMPH,WindSpeedGustMPH,Humidity,HourlyPrecipIn,Conditions,Clouds,dailyrainin,SoftwareType,DateUTC
2013-08-01 07:29:00,70.3,69.1,30.00,South,180,0.0,6.0,96,0.00,,---,0.00,VWS V13.01,2013-08-01 12:29:00,
2013-08-01 07:31:00,70.3,69.1,30.00,South,180,2.0,6.0,96,0.00,,---,0.00,VWS V13.01,2013-08-01 12:31:00,
2013-08-01 11:08:00,77.6,69.4,30.03,East,99,5.0,5.0,76,0.00,,---,0.00,VWS V13.01,2013-08-01 16:08:00,
2013-08-01 11:13:00,78.4,71.0,30.03,East,100,3.0,5.0,78,0.00,,---,0.00,VWS V13.01,2013-08-01 16:13:00,
2013-08-01 11:18:00,78.7,71.3,30.03,East,100,7.0,9.0,78,0.00,,---,0.00,VWS V13.01,2013-08-01 16:18:00,
2013-08-01 11:23:00,78.4,70.6,30.03,East,99,0.0,9.0,77,0.00,,---,0.00,VWS V13.01,2013-08-01 16:23:00,
2013-08-01 11:27:00,78.2,70.0,30.03,East,100,4.0,9.0,76,0.00,,---,0.00,VWS V13.01,2013-08-01 16:27:00,
2013-08-01 11:32:00,78.3,69.7,30.03,East,87,2.0,6.0,75,0.00,,---,0.00,VWS V13.01,2013-08-01 16:32:00,
2013-08-01 11:37:00,78.3,69.3,30.03,East,86,1.0,10.0,74,0.00,,---,0.00,VWS V13.01,2013-08-01 16:37:00,
2013-08-01 11:42:00,78.5,69.9,30.03,ENE,65,0.0,12.0,75,0.00,,---,0.00,VWS V13.01,2013-08-01 16:42:00,
2013-08-01 11:47:00,78.7,70.1,30.03,ENE,66,0.0,12.0,75,0.00,,---,0.00,VWS V13.01,2013-08-01 16:47:00,
2013-08-01 11:52:00,78.8,69.8,30.03,ENE,66,3.0,12.0,74,0.00,,---,0.00,VWS V13.01,2013-08-01 16:52:00,
2013-08-01 11:57:00,79.0,70.4,30.03,ENE,65,3.0,12.0,75,0.00,,---,0.00,VWS V13.01,2013-08-01 16:57:00,
2013-08-01 12:02:00,79.3,70.7,30.03,ENE,65,4.0,10.0,75,0.00,,---,0.00,VWS V13.01,2013-08-01 17:02:00,
2013-08-01 12:07:00,79.2,70.6,30.03,ENE,65,3.0,10.0,75,0.00,,---,0.00,VWS V13.01,2013-08-01 17:07:00,
2013-08-01 12:12:00,79.2,69.8,30.03,NE,44,5.0,13.0,73,0.00,,---,0.00,VWS V13.01,2013-08-01 17:12:00,
2013-08-01 12:17:00,79.5,70.5,30.03,NE,44,1.0,13.0,74,0.00,,---,0.00,VWS V13.01,2013-08-01 17:17:00,
2013-08-01 12:22:00,79.4,70.0,30.03,NE,44,3.0,13.0,73,0.00,,---,0.00,VWS V13.01,2013-08-01 17:22:00,
2013-08-01 12:27:00,79.4,70.4,30.02,NE,44,9.0,13.0,74,0.00,,---,0.00,VWS V13.01,2013-08-01 17:27:00,
2013-08-01 12:32:00,79.5,70.9,30.02,NE,44,6.0,6.0,75,0.00,,---,0.00,VWS V13.01,2013-08-01 17:32:00,
2013-08-01 12:37:00,79.3,69.9,30.02,NE,44,2.0,10.0,73,0.00,,---,0.00,VWS V13.01,2013-08-01 17:37:00,
2013-08-01 12:42:00,79.4,70.0,30.02,ENE,71,4.0,10.0,73,0.00,,---,0.00,VWS V13.01,2013-08-01 17:42:00,
2013-08-01 12:47:00,79.9,70.9,30.02,ENE,73,3.0,12.0,74,0.00,,---,0.00,VWS V13.01,2013-08-01 17:47:00,
2013-08-01 12:52:00,80.2,70.4,30.02,East,82,0.0,12.0,72,0.00,,---,0.00,VWS V13.01,2013-08-01 17:52:00,
2013-08-01 12:57:00,80.2,70.4,30.02,ENE,77,4.0,12.0,72,0.00,,---,0.00,VWS V13.01,2013-08-01 17:57:00,
2013-08-01 13:02:00,80.6,70.8,30.02,NE,56,5.0,6.0,72,0.00,,---,0.00,VWS V13.01,2013-08-01 18:02:00,
2013-08-01 13:07:00,80.8,70.1,30.02,NE,48,4.0,10.0,70,0.00,,---,0.00,VWS V13.01,2013-08-01 18:07:00,
2013-08-01 13:12:00,80.8,70.5,30.01,NE,48,2.0,10.0,71,0.00,,---,0.00,VWS V13.01,2013-08-01 18:12:00,
2013-08-01 13:17:00,80.9,71.0,30.01,NE,48,0.0,10.0,72,0.00,,---,0.00,VWS V13.01,2013-08-01 18:17:00,
2013-08-01 13:22:00,81.1,70.4,30.01,NE,45,4.0,10.0,70,0.00,,---,0.00,VWS V13.01,2013-08-01 18:22:00,
2013-08-01 13:27:00,81.2,70.9,30.01,NE,43,4.0,10.0,71,0.00,,---,0.00,VWS V13.01,2013-08-01 18:27:00,
2013-08-01 13:32:00,81.4,71.1,30.01,NE,41,4.0,7.0,71,0.00,,---,0.00,VWS V13.01,2013-08-01 18:32:00,
2013-08-01 13:37:00,81.4,71.1,30.01,NE,41,3.0,8.0,71,0.00,,---,0.00,VWS V13.01,2013-08-01 18:37:00,
2013-08-01 13:42:00,81.6,70.4,30.01,NE,41,0.0,8.0,69,0.00,,---,0.00,VWS V13.01,2013-08-01 18:42:00,
2013-08-01 13:47:00,81.5,71.2,30.00,NE,42,5.0,8.0,71,0.00,,---,0.00,VWS V13.01,2013-08-01 18:47:00,
2013-08-01 13:52:00,81.4,70.3,30.01,NE,42,3.0,9.0,69,0.00,,---,0.00,VWS V13.01,2013-08-01 18:52:00,
2013-08-01 13:57:00,81.4,71.1,30.00,NE,41,2.0,10.0,71,0.00,,---,0.00,VWS V13.01,2013-08-01 18:57:00,
2013-08-01 14:02:00,81.8,71.5,30.00,NE,41,0.0,2.0,71,0.00,,---,0.00,VWS V13.01,2013-08-01 19:02:00,
2013-08-01 14:07:00,82.3,72.0,30.00,NE,42,0.0,4.0,71,0.00,,---,0.00,VWS V13.01,2013-08-01 19:07:00,
2013-08-01 14:12:00,82.5,71.3,30.01,NE,39,3.0,10.0,69,0.00,,---,0.00,VWS V13.01,2013-08-01 19:12:00,
2013-08-01 14:17:00,82.4,71.2,30.00,NE,38,5.0,10.0,69,0.00,,---,0.00,VWS V13.01,2013-08-01 19:17:00,
2013-08-01 14:22:00,82.0,71.3,30.01,NE,38,0.0,10.0,70,0.00,,---,0.00,VWS V13.01,2013-08-01 19:22:00,
2013-08-01 14:27:00,81.6,70.9,30.00,NE,38,5.0,10.0,70,0.00,,---,0.00,VWS V13.01,2013-08-01 19:27:00,
2013-08-01 14:32:00,81.6,72.1,30.00,NE,38,4.0,4.0,73,0.00,,---,0.00,VWS V13.01,2013-08-01 19:32:00,
2013-08-01 14:37:00,82.0,70.8,30.00,NE,38,3.0,7.0,69,0.00,,---,0.00,VWS V13.01,2013-08-01 19:37:00,
2013-08-01 14:42:00,81.8,71.9,30.00,NE,38,3.0,7.0,72,0.00,,---,0.00,VWS V13.01,2013-08-01 19:42:00,
2013-08-01 14:47:00,81.7,71.8,30.00,NE,38,4.0,7.0,72,0.00,,---,0.00,VWS V13.01,2013-08-01 19:47:00,
2013-08-01 14:52:00,81.9,71.6,30.00,NE,38,0.0,7.0,71,0.00,,---,0.00,VWS V13.01,2013-08-01 19:52:00,
2013-08-01 14:57:00,82.0,70.4,30.00,NE,38,4.0,10.0,68,0.00,,---,0.00,VWS V13.01,2013-08-01 19:57:00,
2013-08-01 15:02:00,82.0,70.4,29.99,NE,38,4.0,6.0,68,0.00,,---,0.00,VWS V13.01,2013-08-01 20:02:00,
2013-08-01 15:07:00,82.4,73.3,29.99,NE,38,0.0,6.0,74,0.00,,---,0.00,VWS V13.01,2013-08-01 20:07:00,
2013-08-01 15:12:00,82.7,70.6,29.99,NE,38,4.0,7.0,67,0.00,,---,0.00,VWS V13.01,2013-08-01 20:12:00,
2013-08-01 15:17:00,82.8,71.2,29.99,NE,38,0.0,7.0,68,0.00,,---,0.00,VWS V13.01,2013-08-01 20:17:00,
2013-08-01 15:22:00,82.8,71.2,29.99,NE,38,0.0,7.0,68,0.00,,---,0.00,VWS V13.01,2013-08-01 20:22:00,
2013-08-01 15:27:00,83.1,71.9,29.99,NE,38,3.0,9.0,69,0.00,,---,0.00,VWS V13.01,2013-08-01 20:27:00,
2013-08-01 15:32:00,83.1,71.0,29.99,NE,38,1.0,2.0,67,0.00,,---,0.00,VWS V13.01,2013-08-01 20:32:00,
2013-08-01 15:37:00,83.1,71.9,29.99,NE,38,2.0,3.0,69,0.00,,---,0.00,VWS V13.01,2013-08-01 20:37:00,
2013-08-01 15:41:00,83.1,71.9,29.98,NE,38,0.0,5.0,69,0.00,,---,0.00,VWS V13.01,2013-08-01 20:41:00,
2013-08-01 15:46:00,82.9,72.5,29.99,NE,38,2.0,6.0,71,0.00,,---,0.00,VWS V13.01,2013-08-01 20:46:00,
2013-08-01 15:52:00,82.5,70.9,29.99,NE,38,0.0,9.0,68,0.00,,---,0.00,VWS V13.01,2013-08-01 20:52:00,
2013-08-01 15:57:00,82.5,71.7,29.99,NE,38,4.0,9.0,70,0.00,,---,0.00,VWS V13.01,2013-08-01 20:57:00,
2013-08-01 16:02:00,82.6,70.1,29.99,NE,38,0.0,0.0,66,0.00,,---,0.00,VWS V13.01,2013-08-01 21:02:00,
2013-08-01 16:07:00,82.9,71.7,29.98,NE,38,4.0,5.0,69,0.00,,---,0.00,VWS V13.01,2013-08-01 21:07:00,
2013-08-01 16:12:00,83.2,72.0,29.98,NE,38,0.0,5.0,69,0.00,,---,0.00,VWS V13.01,2013-08-01 21:12:00,
2013-08-01 16:17:00,83.2,71.6,29.99,NE,38,0.0,5.0,68,0.00,,---,0.00,VWS V13.01,2013-08-01 21:17:00,
2013-08-01 16:21:00,82.9,72.1,29.98,NE,38,0.0,5.0,70,0.00,,---,0.00,VWS V13.01,2013-08-01 21:21:00,
2013-08-01 16:26:00,83.0,71.8,29.98,NE,38,2.0,5.0,69,0.00,,---,0.00,VWS V13.01,2013-08-01 21:26:00,
2013-08-01 16:32:00,82.9,71.3,29.98,NE,38,0.0,3.0,68,0.00,,---,0.00,VWS V13.01,2013-08-01 21:32:00,
2013-08-01 16:37:00,82.9,71.7,29.98,NE,40,0.0,6.0,69,0.00,,---,0.00,VWS V13.01,2013-08-01 21:37:00,
2013-08-01 16:42:00,82.6,71.0,29.98,NE,40,0.0,7.0,68,0.00,,---,0.00,VWS V13.01,2013-08-01 21:42:00,
2013-08-01 16:47:00,82.3,71.5,29.97,NE,40,0.0,7.0,70,0.00,,---,0.00,VWS V13.01,2013-08-01 21:47:00,
2013-08-01 16:52:00,82.2,70.2,29.97,NE,40,0.0,7.0,67,0.00,,---,0.00,VWS V13.01,2013-08-01 21:52:00,
2013-08-01 16:57:00,82.3,71.1,29.97,NE,38,0.0,7.0,69,0.00,,---,0.00,VWS V13.01,2013-08-01 21:57:00,
2013-08-01 17:02:00,82.4,71.2,29.97,NE,38,3.0,6.0,69,0.00,,---,0.00,VWS V13.01,2013-08-01 22:02:00,
2013-08-01 17:07:00,82.4,71.6,29.97,NE,38,0.0,6.0,70,0.00,,---,0.00,VWS V13.01,2013-08-01 22:07:00,
2013-08-01 17:12:00,82.4,72.1,29.97,NE,37,0.0,6.0,71,0.00,,---,0.00,VWS V13.01,2013-08-01 22:12:00,
2013-08-01 17:17:00,82.5,70.4,29.96,NE,37,0.0,6.0,67,0.00,,---,0.00,VWS V13.01,2013-08-01 22:17:00,
2013-08-01 17:22:00,82.7,70.6,29.97,NE,38,3.0,6.0,67,0.00,,---,0.00,VWS V13.01,2013-08-01 22:22:00,
2013-08-01 17:27:00,82.8,71.2,29.97,NE,38,2.0,6.0,68,0.00,,---,0.00,VWS V13.01,2013-08-01 22:27:00,
2013-08-01 17:32:00,82.8,70.7,29.97,NE,37,2.0,4.0,67,0.00,,---,0.00,VWS V13.01,2013-08-01 22:32:00,
2013-08-01 17:37:00,82.7,71.1,29.97,NE,38,2.0,6.0,68,0.00,,---,0.00,VWS V13.01,2013-08-01 22:37:00,
2013-08-01 17:42:00,82.7,71.1,29.97,NE,37,0.0,6.0,68,0.00,,---,0.00,VWS V13.01,2013-08-01 22:42:00,
2013-08-01 17:47:00,82.8,70.7,29.97,NE,38,3.0,6.0,67,0.00,,---,0.00,VWS V13.01,2013-08-01 22:47:00,
2013-08-01 17:52:00,82.6,70.5,29.97,NE,38,4.0,6.0,67,0.00,,---,0.00,VWS V13.01,2013-08-01 22:52:00,
2013-08-01 17:57:00,82.5,70.9,29.96,NE,38,0.0,6.0,68,0.00,,---,0.00,VWS V13.01,2013-08-01 22:57:00,
2013-08-01 18:02:00,82.3,70.7,29.96,NE,38,0.0,0.0,68,0.00,,---,0.00,VWS V13.01,2013-08-01 23:02:00,
2013-08-01 18:07:00,82.0,70.4,29.97,NE,38,0.0,2.0,68,0.00,,---,0.00,VWS V13.01,2013-08-01 23:07:00,
2013-08-01 18:12:00,81.5,70.8,29.97,NE,37,0.0,3.0,70,0.00,,---,0.00,VWS V13.01,2013-08-01 23:12:00,
2013-08-01 18:17:00,81.4,71.5,29.96,NE,38,0.0,3.0,72,0.00,,---,0.00,VWS V13.01,2013-08-01 23:17:00,
2013-08-01 18:22:00,81.4,71.5,29.96,NE,38,0.0,3.0,72,0.00,,---,0.00,VWS V13.01,2013-08-01 23:22:00,
2013-08-01 18:27:00,81.5,70.8,29.97,NE,38,0.0,4.0,70,0.00,,---,0.00,VWS V13.01,2013-08-01 23:27:00,
2013-08-01 18:32:00,81.3,71.8,29.96,NE,37,0.0,0.0,73,0.00,,---,0.00,VWS V13.01,2013-08-01 23:32:00,
2013-08-01 18:37:00,81.1,71.6,29.96,NE,37,0.0,0.0,73,0.00,,---,0.00,VWS V13.01,2013-08-01 23:37:00,
2013-08-01 18:42:00,80.8,71.7,29.96,NE,38,0.0,0.0,74,0.00,,---,0.00,VWS V13.01,2013-08-01 23:42:00,
2013-08-01 18:47:00,80.5,71.1,29.96,NE,37,0.0,0.0,73,0.00,,---,0.00,VWS V13.01,2013-08-01 23:47:00,
2013-08-01 18:52:00,80.2,71.2,29.96,NE,38,0.0,0.0,74,0.00,,---,0.00,VWS V13.01,2013-08-01 23:52:00,
2013-08-01 18:57:00,80.0,71.0,29.96,NE,38,0.0,0.0,74,0.00,,---,0.00,VWS V13.01,2013-08-01 23:57:00,
2013-08-01 19:02:00,79.8,71.2,29.96,NE,38,0.0,0.0,75,0.00,,---,0.00,VWS V13.01,2013-08-02 00:02:00,
2013-08-01 19:07:00,79.8,71.6,29.96,NE,38,0.0,0.0,76,0.00,,---,0.00,VWS V13.01,2013-08-02 00:07:00,
2013-08-01 19:12:00,79.7,71.5,29.96,NE,37,0.0,2.0,76,0.00,,---,0.00,VWS V13.01,2013-08-02 00:12:00,
2013-08-01 19:17:00,79.6,71.0,29.96,NE,38,0.0,2.0,75,0.00,,---,0.00,VWS V13.01,2013-08-02 00:17:00,
2013-08-01 19:22:00,79.6,71.4,29.96,NE,38,0.0,2.0,76,0.00,,---,0.00,VWS V13.01,2013-08-02 00:22:00,
2013-08-01 19:27:00,79.4,71.2,29.96,NE,38,0.0,2.0,76,0.00,,---,0.00,VWS V13.01,2013-08-02 00:27:00,
2013-08-01 19:32:00,79.2,71.4,29.97,NE,38,0.0,0.0,77,0.00,,---,0.00,VWS V13.01,2013-08-02 00:32:00,
2013-08-01 19:37:00,79.0,71.6,29.96,NE,38,0.0,0.0,78,0.00,,---,0.00,VWS V13.01,2013-08-02 00:37:00,
2013-08-01 19:42:00,78.7,71.6,29.97,NE,38,0.0,0.0,79,0.00,,---,0.00,VWS V13.01,2013-08-02 00:42:00,
2013-08-01 19:47:00,78.4,71.7,29.97,NE,37,0.0,0.0,80,0.00,,---,0.00,VWS V13.01,2013-08-02 00:47:00,
2013-08-01 19:52:00,77.9,71.2,29.97,NE,38,0.0,0.0,80,0.00,,---,0.00,VWS V13.01,2013-08-02 00:52:00,
2013-08-01 19:57:00,77.5,71.6,29.97,NE,37,0.0,0.0,82,0.00,,---,0.00,VWS V13.01,2013-08-02 00:57:00,
2013-08-01 20:02:00,76.9,71.3,29.97,NE,37,0.0,0.0,83,0.00,,---,0.00,VWS V13.01,2013-08-02 01:02:00,
2013-08-01 20:07:00,76.4,71.2,29.97,NE,38,0.0,0.0,84,0.00,,---,0.00,VWS V13.01,2013-08-02 01:07:00,
2013-08-01 20:12:00,76.0,71.2,29.97,NE,38,0.0,0.0,85,0.00,,---,0.00,VWS V13.01,2013-08-02 01:12:00,
2013-08-01 20:17:00,75.6,71.1,29.97,NE,38,0.0,0.0,86,0.00,,---,0.00,VWS V13.01,2013-08-02 01:17:00,
2013-08-01 20:22:00,75.2,71.1,29.97,NE,38,0.0,0.0,87,0.00,,---,0.00,VWS V13.01,2013-08-02 01:22:00,
2013-08-01 20:27:00,74.8,70.7,29.96,NE,37,0.0,0.0,87,0.00,,---,0.00,VWS V13.01,2013-08-02 01:27:00,
2013-08-01 20:32:00,74.5,70.4,29.96,NE,37,0.0,0.0,87,0.00,,---,0.00,VWS V13.01,2013-08-02 01:32:00,
2013-08-01 20:37:00,74.2,70.4,29.96,NE,37,0.0,0.0,88,0.00,,---,0.00,VWS V13.01,2013-08-02 01:37:00,
2013-08-01 20:42:00,73.9,70.1,29.96,NE,38,0.0,0.0,88,0.00,,---,0.00,VWS V13.01,2013-08-02 01:42:00,
2013-08-01 20:47:00,73.6,70.2,29.96,NE,37,0.0,0.0,89,0.00,,---,0.00,VWS V13.01,2013-08-02 01:47:00,
2013-08-01 20:52:00,73.3,70.2,29.96,NE,37,0.0,0.0,90,0.00,,---,0.00,VWS V13.01,2013-08-02 01:52:00,
2013-08-01 20:57:00,73.0,69.9,29.97,NE,38,0.0,0.0,90,0.00,,---,0.00,VWS V13.01,2013-08-02 01:57:00,
2013-08-01 21:02:00,72.7,69.9,29.97,NE,38,0.0,0.0,91,0.00,,---,0.00,VWS V13.01,2013-08-02 02:02:00,